STARLINK-11652, 63315

Orbit data source: Space-Track

STARLINK-11652, 63315 is a payload satellite owned by SpaceX/Seattle (US) in LEO that was launched on Tue, 18 Mar 2025 UTC via an FALCON 9 launch vehicle from the Air Force Eastern Test Range (AFETR). Payload-class satellites include a variety of spacecraft equipped with specific instruments for various scientific and technological missions. These include communications satellites like Starlink; space stations such as the ISS; scientific satellites like the Hubble; Earth observation satellites from companies like Planet Labs, Umbra, and HawkEye 360; GPS; miniature CubeSats for education and research; and military/defense satellites.

Loading next visibility...
Identifier
63315, 2025-057J
Orbit
LEO
Last TLE update
10 hours ago
Origin
Manufacturer
SpaceX/Seattle
Mission
Operational Commercial Communications
Bus & Motor
STARLINK V2M, Unknown motor
Mass
730 kg wet, ~700 kg dry
Launch date (UTC)
2025-03-18 (4 months ago)
Launch vehicle
FALCON 9
Launch site
Air Force Eastern Test Range (AFETR)
Object type
Payload
Rocket body
Debris
Shape & HBR
Box + 2 Pan, 29 m
Radar Cross Section
36.964 m², Large (>1 m²)

Expand to show TLE details & history

TLE from 10 hours ago
0 STARLINK-11652
1 63315U 25057J   25183.46265369  .00154979  00000-0  11873-2 0  9994
2 63315  43.0014 332.7945 0002289 264.8847  95.1759 15.70871077 17855
Epoch: 2025-07-02T11:06Z
TLE epoch observation values (Epoch: 2025-07-02T11:06:13.278Z)
Latitude
-0.00006°
Longitude
-114.5043°
Altitude
356.317 km
Speed
7.697 km/s
True Right ascension
22h 11m 10s
True Declination
0° 00' 00"
Sunlit
Object was in full shadow at epoch
Visualization orbit readout
Latitude
43.01505°
Longitude
-32.70693°
Altitude
360.677 km
Speed
7.698 km/s
Apparent Right ascension
00h 01m 03s
Apparent Declination
5° 03' 29"
Sunlit
Object is in daylight
Visualization observer readout
Local Sidereal Time
08:21:23
Azimuth
298.088° NW
Elevation
-22.493°
Doppler factor
1
Orbital elements
Apogee altitude
359.93 km
Perigee altitude
356.846 km
Semi-major axis
6,736.525 km
Eccentricity
0.00023
Inclination
43.0014°
RAAN
332.7945°
Arg. of periapsis
264.8847°
True anomaly
Unknown
Mean anomaly
95.1759°
Eccentric anomaly
Unknown
Mean motion
3.92545 °/min
Orbital period
91.71 mins
BSTAR
0.0011873
Loading maneuver chart data...
Loading SW <> Apogee altitude chart data...
Loading historical data...
Loading historical data...
Loading historical data...
Loading historical data...
Loading historical data...
Loading historical data...
Loading historical data...

STARLINK-11652 Visibility forecast

Observer location: undefined°, undefined°

Span
Click to sort rows by Start time (UTC) header in descending order
Start Az.
Max El. time (UTC)
Max El. Az.
Max El.
End time (UTC)
End Az.
5 mins2025-07-03 13:15:20.104Z220.361° SW2025-07-03 13:18:20.104Z128.918° SE29.245°2025-07-03 13:20:20.104Z85.615° E
4 mins2025-07-03 14:52:20.104Z277.789° WNW2025-07-03 14:54:20.104Z26.905° NE36.927°2025-07-03 14:56:20.104Z66.7° ENE
|